GEFSMA_500_meanwind_204.txt.gz
Wind_Speed
6 6 6 6 5 5 5 4 4 4 5 5 4 3 3 2 2 1 1 1 1 1 1 1 1 0 1 1 1 2 2 2 2 3 3 3 4 4 4 4 4 4 4
5 5 5 5 5 4 4 3 3 3 4 3 3 3 2 1 1 0 0 1 1 1 2 2 2 2 2 2 2 3 3 4 4 4 5 5 5 5 5 5 5 5 6
4 4 4 4 3 3 3 2 3 2 2 2 1 1 0 0 1 1 1 2 2 2 3 2 2 3 3 3 4 4 5 5 6 6 6 6 7 7 7 8 8 8 8
3 3 2 2 1 1 2 2 2 2 1 1 1 1 2 2 2 2 2 3 3 4 4 4 4 4 4 5 5 6 7 7 7 8 8 8 9 9 10 10 10 10 10
2 2 1 1 1 1 1 1 1 2 2 2 2 3 3 4 4 4 4 5 5 5 5 6 6 6 6 6 7 7 8 8 9 9 10 10 11 11 12 12 12 12 12
1 1 1 1 1 1 2 2 2 3 3 4 4 4 5 6 6 6 7 7 7 7 7 7 8 8 8 8 8 9 9 10 10 11 12 12 13 13 13 14 14 14 15
3 3 2 2 3 2 3 3 4 4 5 5 6 6 7 7 8 8 9 9 9 9 9 9 10 10 11 11 10 11 11 12 12 13 13 14 14 15 15 15 16 16 17
4 4 5 4 4 4 5 6 6 7 7 7 8 8 8 9 9 10 10 11 11 11 10 11 11 12 12 12 12 13 14 14 15 15 15 16 16 16 17 17 17 18 18
5 6 6 6 6 7 7 8 8 8 9 9 10 10 11 11 11 12 12 12 12 12 12 12 13 13 14 14 14 15 15 16 17 17 17 17 17 18 18 18 18 19 19
6 6 7 7 8 9 9 9 10 10 11 11 11 12 12 13 13 13 13 13 13 13 13 14 14 15 16 16 16 17 18 18 18 18 19 19 19 20 20 20 20 20 21
7 7 7 8 8 9 9 10 10 11 12 13 13 13 13 14 14 14 14 14 14 14 14 15 15 16 17 17 18 19 19 19 19 19 19 20 20 21 21 22 23 23 24
8 8 8 9 9 9 10 11 12 13 13 14 14 14 15 15 15 14 14 15 15 16 16 17 16 17 18 19 20 20 21 21 21 21 21 22 22 22 23 24 25 26 26
9 10 10 10 10 11 11 12 13 13 13 14 14 14 15 15 15 15 15 15 16 17 17 17 18 18 19 20 21 22 21 21 22 22 22 22 23 23 23 24 26 27 28
10 10 10 11 11 11 11 12 13 13 13 13 13 14 14 13 14 15 15 15 15 17 18 18 19 19 20 20 21 21 21 22 23 23 23 24 24 24 25 25 26 27 28
9 9 9 10 10 11 11 12 12 12 12 12 12 13 13 14 14 14 14 15 16 17 18 19 19 19 20 21 21 21 22 23 23 23 24 24 25 26 26 27 27 28 29
9 9 9 10 10 11 12 11 11 11 11 12 12 13 14 15 15 15 16 17 17 17 18 19 20 21 22 22 23 23 24 24 24 24 25 25 26 27 29 29 30 30 31
8 9 9 9 10 10 11 11 10 11 11 12 12 12 13 14 15 16 17 17 17 18 19 20 21 22 23 23 24 24 24 24 24 25 26 27 28 29 30 30 31 32 32
8 9 9 10 10 10 10 11 11 11 12 12 13 13 14 14 15 16 17 18 18 19 20 21 22 23 23 24 24 24 25 25 26 27 27 28 29 29 30 31 31 32 33
8 9 10 10 10 10 11 11 11 12 12 12 13 13 14 15 16 16 17 17 18 19 21 22 22 22 23 23 24 25 26 26 26 27 28 29 30 31 31 31 32 32 32
9 9 10 10 10 11 11 12 12 12 13 14 14 14 15 16 16 17 17 17 18 19 20 20 21 22 22 23 24 26 26 27 27 28 30 30 31 31 32 32 33 33 33
10 10 10 10 11 11 12 12 13 13 14 15 15 15 16 16 17 17 18 18 19 19 20 21 22 23 24 25 26 26 26 27 28 29 30 30 31 32 32 33 33 34 34
12 12 11 11 11 11 12 13 13 14 14 15 15 16 17 18 18 18 19 19 20 21 21 23 23 24 25 27 27 27 28 28 29 30 31 31 32 33 34 34 34 34 35
12 12 12 12 12 13 13 14 14 15 15 16 17 17 18 19 19 20 20 21 21 22 23 24 25 26 27 28 28 28 29 30 30 31 32 32 33 33 34 35 36 36 36
12 12 12 13 13 14 15 15 16 17 17 17 18 19 20 21 21 22 22 22 22 23 24 25 25 26 27 28 28 29 29 30 30 31 32 32 33 35 36 37 37 37 37
13 13 14 14 15 15 16 16 17 17 18 18 19 20 21 22 23 24 24 24 24 25 25 26 26 27 27 28 29 30 31 32 32 33 33 34 35 36 37 37 38 38 38
14 15 15 15 16 17 17 18 19 19 19 20 20 21 23 24 24 24 25 25 26 26 26 27 28 28 28 29 30 32 32 33 34 34 35 36 36 37 37 37 37 36 36

GEFSMA_500_meanwind_210.txt.gz
Wind_Speed
5 4 4 4 3 4 4 4 4 3 3 3 3 3 3 3 2 2 2 2 1 1 1 1 1 2 2 3 2 2 3 3 4 4 5 5 5 5 5 5 5 5 5
5 4 3 3 3 2 2 2 2 2 2 2 2 2 2 1 2 2 2 2 2 2 1 1 2 2 3 3 3 3 4 4 5 5 6 7 7 7 7 7 7 7 7
4 3 3 3 2 2 1 1 1 1 0 0 0 0 0 1 0 1 1 2 3 3 3 3 3 3 3 4 4 5 5 5 6 7 7 8 8 9 9 9 9 9 9
3 3 3 2 2 2 1 1 0 0 1 1 2 2 2 2 2 2 2 3 4 4 4 4 4 5 5 5 6 6 7 7 7 8 8 8 9 10 10 11 11 12 12
3 3 3 2 2 2 2 2 2 2 2 2 2 2 3 3 4 4 4 4 5 5 5 6 6 7 7 7 7 8 8 8 8 8 9 10 10 10 11 12 13 13 13
3 3 3 2 2 2 2 2 3 3 4 4 4 4 4 5 6 6 6 6 7 7 7 7 8 8 8 8 9 9 9 9 10 10 11 11 11 12 12 13 13 14 15
3 4 4 3 3 4 4 4 5 5 5 5 6 6 7 7 7 7 8 8 8 8 9 9 10 9 10 10 11 11 11 11 11 12 12 13 13 14 14 14 15 15 16
4 4 4 4 5 5 6 6 7 7 7 7 8 8 8 8 9 9 9 10 10 10 10 11 11 11 12 12 12 12 12 13 13 14 15 15 15 15 16 16 16 17 17
5 5 6 6 6 7 8 8 8 8 9 9 9 9 10 10 10 11 11 11 12 12 12 12 12 13 13 13 14 14 14 14 15 15 16 16 16 17 17 18 18 18 19
7 7 8 8 8 9 9 10 9 10 10 11 11 11 11 11 11 12 12 12 12 12 13 13 13 13 14 15 15 15 16 16 17 17 18 17 18 18 18 19 20 21 21
8 9 9 9 9 10 10 11 11 10 11 11 11 12 12 12 12 12 12 12 13 13 13 14 15 15 15 15 16 16 17 18 19 19 19 19 19 20 20 20 21 21 22
9 9 9 10 10 10 10 11 10 11 11 11 11 12 12 13 12 13 13 13 14 14 14 14 15 15 15 15 16 17 18 18 19 20 20 20 20 20 21 22 22 22 23
9 10 10 10 11 11 11 11 11 11 11 11 11 12 13 13 14 14 14 14 15 15 15 15 16 17 17 17 17 18 19 19 20 20 21 21 22 22 23 23 24 24 24
10 10 10 10 11 11 11 11 11 11 11 11 11 12 12 13 13 14 15 15 15 15 16 16 16 17 18 18 19 19 20 20 21 21 22 22 23 24 24 25 26 26 27
10 10 10 10 10 10 11 11 11 11 11 11 12 12 13 13 13 14 14 14 15 15 15 16 17 18 18 19 19 20 20 20 21 22 22 23 24 24 25 26 27 27 28
10 10 10 10 10 11 11 11 11 11 11 11 12 12 13 13 14 14 14 15 15 15 16 17 17 18 19 20 20 21 21 21 21 22 23 24 24 25 26 27 27 27 28
9 9 9 9 10 10 11 11 11 11 11 11 11 12 12 13 13 14 14 14 15 16 17 17 19 19 20 20 21 21 22 22 23 24 24 25 25 26 27 27 28 28 29
10 9 9 10 10 11 11 11 11 12 12 12 12 13 13 14 14 15 15 15 16 17 17 18 19 20 20 20 20 22 23 23 24 25 25 25 26 27 27 28 28 29 30
10 10 10 10 11 11 11 11 11 12 13 13 13 13 14 15 15 15 16 16 17 17 18 19 20 21 21 21 22 22 23 24 24 25 26 27 28 28 28 28 29 30 30
11 11 11 11 11 11 12 12 12 12 13 14 14 15 15 16 16 16 17 17 18 18 19 19 20 20 21 22 23 23 24 25 25 26 27 27 27 28 29 30 31 31 31
13 13 12 12 13 13 13 13 13 13 13 14 15 16 16 17 18 18 18 19 19 20 20 20 20 20 21 22 23 24 25 25 26 27 27 28 28 29 30 31 31 32 32
14 14 14 14 14 14 14 14 14 14 15 15 16 17 17 18 18 19 20 20 20 20 20 20 21 21 22 23 23 25 26 26 27 28 28 29 30 30 31 32 32 33 34
15 15 15 15 15 15 15 15 15 16 16 17 18 18 19 20 20 20 21 21 21 21 22 23 23 24 24 25 25 26 27 28 29 30 30 31 32 32 33 34 34 35 36
16 17 17 17 16 16 16 16 16 17 18 19 20 20 20 21 22 22 22 22 23 23 24 24 25 26 26 27 28 29 30 30 31 32 33 33 33 34 34 34 35 37 37
18 19 18 17 16 16 16 17 18 18 19 20 20 22 22 22 23 24 24 25 25 26 26 26 27 28 28 30 30 31 31 31 32 33 34 34 34 34 34 35 36 36 37
19 19 17 17 17 17 17 18 18 19 20 20 22 22 23 23 24 24 24 25 26 27 27 28 28 29 30 30 31 31 32 32 33 33 34 35 35 35 35 35 36 36 35

GEFSMA_500_meanwind_216.txt.gz
Wind_Speed
7 6 5 5 5 4 4 4 4 3 3 2 2 1 1 2 2 2 2 1 1 1 1 1 1 2 2 2 3 3 3 4 4 5 5 5 5 5 6 7 7 7 7
6 5 5 4 4 3 3 2 2 2 2 1 1 1 1 2 1 1 1 1 1 2 2 3 3 3 4 4 4 4 5 5 5 6 6 6 6 7 8 8 9 9 9
6 5 5 4 3 2 2 2 1 1 1 0 1 2 2 1 2 2 2 3 3 3 4 4 4 4 5 5 6 6 6 6 7 7 7 8 8 8 9 10 10 10 11
4 4 4 4 3 1 1 0 0 1 1 1 2 2 3 2 3 3 4 4 5 5 6 5 6 6 7 7 7 7 8 8 8 8 8 9 9 10 10 11 12 12 12
3 3 3 3 2 2 1 1 1 2 2 3 3 4 4 4 5 5 6 6 6 7 7 7 8 8 8 8 9 8 8 9 9 9 9 10 11 11 12 13 13 13 14
3 2 2 2 2 2 2 2 2 3 4 5 5 5 6 7 7 7 8 8 8 8 8 9 9 9 9 10 9 10 10 10 11 11 12 12 12 13 14 14 15 14 15
2 2 2 3 3 3 3 3 4 5 5 6 7 8 8 8 8 9 9 9 10 10 10 10 10 11 11 11 11 12 12 12 13 13 14 14 14 15 16 16 16 15 16
3 3 3 3 4 5 5 5 6 7 8 8 8 9 9 9 9 9 10 10 11 11 12 12 13 12 13 13 14 14 15 14 14 14 14 15 15 16 17 17 16 16 17
4 4 5 5 6 6 7 7 8 8 9 9 9 10 10 10 10 10 11 11 12 13 13 14 13 13 14 14 14 14 14 15 15 15 15 16 16 17 17 17 17 18 18
5 6 6 6 7 7 7 7 7 8 9 9 9 9 9 9 11 11 12 12 12 13 14 15 15 14 14 14 15 15 15 15 15 16 16 17 18 17 17 18 18 19 19
6 6 7 7 7 7 8 8 7 8 8 8 8 9 10 10 10 11 12 12 12 13 13 14 14 14 14 14 15 15 15 16 16 16 17 18 18 18 18 19 19 20 21
6 7 7 8 9 8 8 8 8 8 8 8 8 9 9 10 11 11 12 13 13 13 13 14 15 15 15 15 15 16 17 18 18 18 18 19 20 20 21 21 21 22 22
7 7 7 8 9 8 9 9 9 9 9 9 9 9 9 10 10 11 12 12 13 14 14 15 15 15 16 16 17 17 18 18 18 19 19 20 21 21 22 22 23 23 24
7 7 7 8 8 8 9 9 8 9 9 9 9 9 9 10 10 11 11 12 13 14 14 14 14 14 15 16 16 17 17 18 19 20 20 21 21 22 22 22 23 24 25
6 6 7 8 8 8 8 7 8 9 9 9 9 9 9 10 11 11 12 12 13 13 13 13 14 15 15 16 17 17 18 19 20 20 20 21 22 23 23 23 24 24 25
6 6 7 7 7 7 7 7 7 8 8 9 9 9 9 9 10 10 10 11 11 12 12 13 14 15 16 17 17 18 19 19 20 21 21 22 22 23 23 24 24 25 25
7 6 7 7 7 7 7 7 7 8 9 9 10 10 10 10 11 11 12 12 13 13 13 13 14 16 16 17 18 19 20 20 21 21 21 22 22 23 24 25 26 27 27
7 7 8 8 7 7 8 8 9 9 10 10 11 11 11 11 12 13 13 14 14 14 15 16 16 17 18 19 20 20 20 21 21 22 22 22 23 24 25 26 27 28 29
8 8 9 8 8 8 9 9 9 10 10 11 11 11 12 12 13 13 14 14 15 15 16 17 18 18 19 19 20 21 21 22 22 22 23 24 24 25 26 28 28 29 30
9 10 10 10 10 10 10 10 11 11 11 11 12 12 12 13 13 13 14 15 15 16 17 18 19 19 19 20 21 22 23 24 24 25 26 26 25 26 27 29 29 29 30
11 11 11 11 11 11 11 12 12 12 12 12 13 13 13 13 14 14 15 16 16 17 18 19 19 20 21 22 22 23 23 24 25 26 27 27 27 28 28 29 29 30 31
12 12 12 12 12 12 13 13 13 13 13 14 14 14 13 14 15 16 16 17 17 18 19 20 20 21 22 23 23 24 25 25 26 27 28 29 29 29 30 30 31 32 32
13 13 13 13 13 14 14 14 14 14 14 14 14 14 14 15 16 17 18 18 19 20 21 21 22 22 23 24 24 26 26 27 28 28 29 29 30 31 32 33 33 34 34
14 14 14 14 14 14 14 14 14 14 14 14 15 15 16 16 17 18 19 20 21 21 22 22 23 23 24 24 25 26 27 28 28 29 30 31 31 32 32 33 33 34 34
14 14 15 15 15 14 14 14 14 14 15 15 16 17 17 18 19 20 20 21 21 21 22 23 24 24 25 26 27 27 28 29 30 30 31 31 32 32 32 33 33 34 34
15 15 15 15 15 14 14 14 15 15 16 16 17 18 18 19 20 20 21 22 22 23 24 24 25 26 27 27 28 29 29 29 30 31 31 31 32 32 33 33 34 34 34

GEFSMA_500_meanwind_222.txt.gz
Wind_Speed
7 7 7 6 6 5 5 4 3 3 3 3 2 1 1 1 0 0 0 0 0 1 2 2 2 2 3 3 3 4 5 5 5 5 6 6 6 6 6 7 7 7 8
6 6 6 5 5 4 3 3 2 3 2 2 2 0 1 1 1 1 2 2 2 3 3 3 4 4 4 5 5 6 6 6 7 7 7 7 8 8 8 8 9 9 9
5 5 4 4 4 3 3 2 1 1 1 1 1 1 2 2 3 3 3 4 4 5 5 6 6 6 6 7 7 7 7 8 8 8 8 9 9 9 9 10 10 10 11
4 4 3 3 3 3 2 1 1 2 2 2 3 3 3 4 4 4 5 6 6 6 7 7 8 8 8 8 8 8 8 9 9 9 9 10 10 10 10 10 11 12 12
4 3 2 3 3 2 2 2 2 3 3 4 4 5 5 6 6 7 7 8 7 8 8 8 9 9 9 9 10 10 10 10 10 10 10 10 11 11 12 12 13 13 13
2 2 3 3 3 3 3 3 3 4 4 5 6 7 7 8 8 9 8 9 9 10 10 10 10 10 11 12 12 12 13 12 12 12 12 12 13 14 14 14 14 15 15
1 2 2 3 3 4 5 5 6 6 7 7 8 8 9 9 9 9 9 10 11 11 11 11 12 12 13 13 14 14 14 14 14 14 15 15 15 16 16 16 16 16 16
2 3 3 3 4 5 6 7 7 7 8 9 9 10 9 9 10 10 10 11 11 12 13 13 13 14 14 14 14 15 15 16 16 16 17 16 17 16 16 16 17 18 18
3 4 5 6 6 7 7 7 7 8 9 9 10 10 11 12 12 12 12 13 13 13 13 14 14 15 16 15 15 15 15 16 16 16 17 17 17 17 17 18 18 19 19
4 6 7 7 8 8 8 9 9 9 10 10 10 10 11 11 12 13 14 14 14 14 15 15 15 16 15 15 15 16 16 15 16 16 17 17 18 18 18 18 19 19 20
6 7 8 8 8 9 9 10 10 10 10 10 10 11 11 10 11 12 14 15 15 15 15 15 16 16 16 16 16 16 16 17 17 17 18 18 19 19 19 19 20 20 20
7 8 9 9 9 10 10 10 10 10 11 11 11 11 11 11 12 12 13 14 15 16 15 16 16 16 16 17 17 17 17 18 18 18 19 20 21 21 21 21 22 22 22
8 8 9 9 9 10 10 11 11 11 11 11 12 12 12 12 13 12 12 12 14 15 16 16 16 17 17 17 17 17 18 19 19 19 20 21 21 22 22 23 23 23 24
8 8 8 8 9 9 9 9 10 10 11 11 12 12 12 12 12 12 12 13 13 13 14 15 16 16 17 17 17 18 18 19 19 20 21 22 22 22 23 24 24 24 25
8 8 8 8 9 9 8 9 9 10 11 11 11 11 12 12 13 12 13 13 13 13 13 14 15 16 17 17 18 19 19 20 21 21 22 22 23 23 24 25 25 26 26
8 8 7 8 8 8 8 9 10 10 11 11 12 12 12 12 12 12 12 13 14 14 15 15 16 17 18 19 20 20 20 21 21 22 22 23 24 25 26 26 27 28 28
9 8 8 8 8 9 9 10 10 11 11 11 12 12 12 13 13 13 14 14 15 16 17 17 18 19 20 20 20 21 22 23 23 24 25 25 26 27 28 28 28 29 30
10 9 9 9 9 10 10 11 11 12 12 13 13 13 14 14 14 14 15 16 16 17 18 18 19 20 20 21 21 22 23 23 25 26 26 27 28 29 29 29 30 30 31
11 10 10 10 10 11 11 11 12 13 14 14 14 14 14 14 14 15 16 17 17 18 18 19 20 20 20 21 21 23 24 25 26 26 27 28 29 30 30 30 31 31 32
11 11 11 11 11 11 12 12 13 14 14 15 15 15 14 14 15 16 17 17 18 18 18 20 20 21 20 21 22 23 24 25 25 25 27 28 29 30 29 30 31 31 32
11 11 12 12 12 12 13 13 13 14 14 15 15 14 15 16 16 17 18 18 19 19 20 20 21 21 21 22 23 24 24 24 25 26 27 28 28 29 29 30 30 31 32
12 13 13 13 13 13 13 13 14 14 14 14 14 15 16 16 17 18 18 19 19 20 20 21 21 21 22 23 23 24 24 25 26 26 27 28 29 30 30 30 31 32 33
14 14 14 14 13 14 14 14 14 14 14 14 15 15 16 16 17 18 18 19 20 20 20 21 22 22 23 24 24 24 25 26 26 27 27 29 30 30 31 31 32 33 33
15 14 14 14 14 15 15 14 14 14 14 14 15 16 16 17 18 19 19 19 19 20 21 21 22 23 24 24 25 26 27 27 28 29 29 30 31 31 31 32 33 33 33
15 15 15 16 16 16 16 15 14 14 15 15 16 17 17 18 18 19 19 19 20 21 22 22 23 24 25 25 26 27 28 29 29 30 30 31 32 32 33 33 33 33 34
16 16 17 17 17 17 16 16 16 16 16 16 17 17 17 18 18 19 19 20 21 22 22 23 24 25 26 27 28 28 29 29 30 30 31 32 32 33 33 33 34 34 34

GEFSMA_500_meanwind_228.txt.gz
Wind_Speed
8 8 7 6 6 6 5 5 5 5 4 3 3 3 2 2 1 1 1 1 1 2 3 4 4 5 5 5 5 6 6 6 6 6 6 6 7 7 7 7 8 8 9
6 6 6 5 5 4 4 4 3 3 2 2 2 1 1 0 1 1 2 3 3 4 4 4 5 6 6 6 6 7 7 7 7 7 8 8 7 8 8 9 9 9 9
4 4 4 4 4 4 3 2 2 1 1 0 0 1 1 2 2 3 3 4 4 5 6 6 6 6 6 7 7 7 8 9 9 9 9 8 8 8 8 9 9 10 10
4 3 3 3 2 2 1 1 1 1 1 2 2 3 3 4 4 5 5 5 5 6 7 7 7 7 7 8 8 8 9 9 9 10 10 10 9 9 10 10 11 11 12
3 3 2 2 1 1 1 1 1 2 3 3 4 5 6 6 6 6 7 7 8 8 7 7 8 9 9 10 10 11 11 11 11 11 11 12 12 12 12 12 13 13 13
1 1 1 1 2 2 2 2 2 3 3 4 5 6 7 7 8 8 8 9 9 8 8 9 10 11 11 11 12 13 13 13 13 13 13 13 13 13 13 14 15 14 14
1 1 2 2 3 4 4 4 4 5 5 5 6 6 8 9 9 9 10 9 9 9 10 11 11 12 12 13 13 13 13 14 14 14 14 14 14 14 15 15 15 15 16
2 3 3 3 4 5 6 6 6 6 6 6 7 8 8 9 9 10 10 10 10 11 11 12 13 13 13 13 13 14 14 14 14 14 14 14 15 15 15 17 17 17 17
2 3 4 5 6 7 7 8 8 8 8 8 8 8 9 10 9 10 10 11 11 12 12 13 13 13 14 14 14 14 14 15 16 16 15 16 17 17 17 17 18 18 18
4 5 6 6 7 8 9 9 9 9 9 9 9 9 9 10 10 10 11 11 12 13 13 14 14 14 14 14 14 14 15 15 16 16 17 17 18 18 18 18 19 20 20
5 6 7 8 8 8 9 10 9 10 10 9 9 10 10 11 11 11 11 12 13 13 13 13 13 14 14 15 15 15 16 16 16 17 18 18 19 19 19 19 19 21 22
6 6 7 8 8 9 9 9 9 9 9 9 9 10 10 11 11 11 11 12 12 12 12 12 13 14 15 15 15 16 16 17 17 18 19 19 19 20 20 20 20 21 22
7 7 8 8 9 9 9 9 9 8 8 9 9 10 10 11 11 11 11 11 12 12 12 12 13 13 14 15 15 15 17 17 18 19 19 20 20 21 21 21 21 22 23
8 8 8 8 9 9 9 9 8 8 8 9 9 10 10 11 11 11 11 11 11 12 12 13 13 13 14 15 15 16 17 18 18 19 20 21 21 22 22 23 24 24 24
8 9 9 9 9 9 9 9 9 9 10 10 10 10 10 10 11 11 11 11 12 13 13 14 14 15 15 15 16 17 18 18 19 20 20 21 22 23 24 24 25 26 27
8 9 9 9 9 10 10 10 10 10 10 10 11 11 11 11 12 13 12 12 13 13 13 14 15 15 16 17 17 18 18 19 20 20 21 22 23 24 25 26 27 28 29
9 9 10 10 11 11 11 11 11 11 11 11 12 12 13 13 14 14 13 13 14 14 15 15 16 16 17 17 18 18 19 20 21 21 22 23 24 25 26 26 27 28 29
10 10 10 11 12 12 12 12 12 11 12 12 12 13 13 13 14 14 14 15 15 16 16 16 17 17 18 18 18 19 20 21 22 22 23 24 24 25 26 26 27 27 29
10 10 11 12 13 12 12 13 12 12 13 13 13 13 14 14 14 15 15 16 16 17 17 17 17 18 18 19 19 20 20 22 23 24 24 25 26 26 26 26 27 28 29
12 12 12 13 13 13 13 13 13 13 14 14 14 14 14 14 14 15 15 16 16 17 17 17 17 18 18 19 19 21 21 23 24 24 24 25 26 26 27 28 29 29 30
12 13 13 14 14 14 14 13 14 14 14 14 15 15 14 14 14 14 15 15 16 16 17 17 17 18 19 19 20 22 22 23 24 25 25 26 27 27 27 28 29 29 30
13 14 14 14 15 15 15 14 14 14 14 14 15 15 14 15 15 15 15 16 16 17 17 17 18 18 19 20 21 22 23 24 24 25 26 27 27 28 28 29 29 30 30
14 14 15 15 16 16 16 16 15 15 14 14 15 15 15 15 15 15 15 16 16 17 17 17 18 19 20 21 22 23 24 24 25 26 27 28 29 30 30 31 31 31 31
15 15 15 16 16 16 17 17 16 16 16 15 15 16 16 15 16 16 16 16 17 17 18 18 19 20 21 22 23 24 25 26 26 27 27 28 29 30 31 31 31 31 31
17 16 16 16 16 17 17 17 17 17 17 16 16 16 16 16 16 17 17 18 18 19 19 20 21 22 23 24 25 25 26 27 27 28 28 29 29 30 31 31 32 32 32
18 17 17 17 17 17 18 18 17 17 17 17 17 17 17 17 18 18 19 19 19 20 21 22 22 23 24 25 25 26 27 27 28 28 29 30 30 31 31 32 32 32 32

GEFSMA_500_meanwind_234.txt.gz
Wind_Speed
6 7 7 5 5 5 4 3 3 3 3 3 2 2 1 1 1 1 1 2 2 3 3 4 4 5 5 5 6 6 6 7 7 7 7 7 8 7 7 7 7 7 8
5 6 6 5 5 4 3 3 2 2 2 1 1 1 1 1 1 2 2 3 4 5 5 5 6 6 6 6 6 7 7 8 8 9 9 9 8 8 8 8 8 8 8
5 5 5 5 5 4 3 3 2 2 2 1 2 2 3 3 4 4 4 4 5 6 7 7 7 7 7 7 8 8 8 8 8 8 9 10 10 10 10 10 10 10 10
4 4 4 4 4 4 4 3 3 3 3 3 4 4 4 5 6 6 6 6 7 7 8 8 8 9 9 9 9 10 10 10 10 10 11 11 11 11 12 12 12 13 13
3 3 3 3 4 4 4 4 4 4 4 5 5 5 6 7 8 8 7 8 8 9 9 9 9 10 10 10 11 11 12 12 12 13 13 13 13 13 13 13 14 14 14
3 3 3 3 4 5 5 5 5 5 6 6 6 6 6 7 8 8 8 9 9 9 10 11 11 11 12 11 11 11 12 12 13 14 13 13 13 14 14 14 15 15 16
3 4 4 4 5 6 6 6 6 6 7 7 7 8 8 8 9 9 9 9 10 10 11 11 12 13 13 12 12 13 13 13 14 14 14 14 14 14 14 15 16 16 16
4 4 5 6 6 7 8 8 8 8 8 8 8 9 9 10 10 10 9 10 11 12 13 13 13 14 14 14 14 15 14 14 14 14 15 15 15 15 15 15 15 15 16
4 5 5 6 7 8 8 9 10 9 9 9 9 10 10 10 10 11 11 11 12 13 13 13 14 13 14 14 15 15 15 14 14 15 15 15 15 16 17 16 17 17 17
5 6 6 7 7 8 9 9 10 10 9 9 10 10 10 10 11 11 12 12 13 13 13 12 13 13 14 14 15 15 15 15 15 15 15 15 15 16 17 17 17 18 18
6 6 6 7 8 8 9 9 10 10 10 10 10 10 10 10 10 11 12 12 12 12 12 12 13 13 14 14 15 15 15 16 16 16 17 17 17 17 18 18 18 19 19
7 7 8 8 9 9 9 9 10 10 10 10 9 9 9 9 10 11 12 12 12 12 12 12 13 13 13 13 13 14 15 15 15 16 16 17 18 19 19 19 19 19 20
7 8 9 9 10 9 9 10 10 10 10 10 10 10 10 10 11 11 12 12 12 12 12 12 12 12 13 13 14 14 15 15 15 15 16 17 18 19 19 19 19 20 20
9 9 9 10 9 9 10 10 11 11 11 10 10 10 10 11 11 12 12 12 13 13 12 12 13 13 13 13 14 15 15 15 16 16 16 17 18 19 20 20 21 21 21
10 10 10 10 10 10 10 10 11 10 10 11 11 11 11 12 13 13 13 14 13 13 13 13 13 14 14 14 14 15 15 16 16 17 17 18 19 20 20 20 21 22 23
10 10 10 10 10 10 11 11 11 11 11 11 11 12 12 13 14 14 14 14 14 14 14 14 15 15 15 14 14 15 15 16 16 17 17 19 20 21 21 22 23 23 24
11 11 11 11 11 11 11 11 11 12 12 12 12 13 13 13 14 14 14 14 14 14 14 15 16 16 15 16 16 16 17 17 18 18 19 19 20 21 21 22 23 23 24
12 12 12 12 12 12 12 12 13 12 12 13 13 13 13 13 14 14 14 14 14 14 14 15 15 16 16 17 17 17 17 18 19 19 20 21 21 22 22 23 23 24 25
13 13 13 13 13 12 12 13 13 13 13 14 14 14 14 14 14 15 15 15 15 15 15 16 16 17 17 17 17 17 17 18 19 20 21 22 23 24 24 25 25 26 27
14 14 14 14 14 13 13 13 14 14 15 15 14 14 15 15 16 16 15 15 15 16 16 16 17 16 17 17 17 18 19 19 20 21 22 23 24 24 25 26 27 28 28
15 15 15 15 14 14 14 15 15 15 16 16 16 15 15 16 16 16 16 16 16 16 16 15 16 16 17 17 18 19 19 21 22 22 23 24 25 26 26 26 27 28 29
16 16 15 15 15 15 15 16 16 17 17 17 17 16 16 16 17 17 17 16 16 16 16 16 16 16 17 18 18 19 20 21 22 23 24 25 26 26 27 28 28 28 29
16 16 16 16 17 17 17 17 17 17 17 17 17 17 17 17 17 17 17 17 17 17 17 17 17 17 18 19 20 21 22 22 24 24 25 26 26 27 27 29 29 29 30
17 17 18 18 18 18 19 19 18 18 18 18 18 18 18 18 17 17 18 18 18 18 19 19 19 19 20 21 22 22 23 24 25 25 26 27 28 29 28 28 29 29 30
18 19 19 19 20 20 20 20 20 20 20 19 19 19 19 19 19 19 19 20 20 20 20 20 21 21 22 22 23 23 24 25 26 27 27 28 29 30 29 29 30 30 30
20 20 21 21 21 21 21 21 21 21 21 20 20 21 21 20 21 21 21 21 21 21 22 22 22 23 23 24 24 25 26 27 28 28 28 29 30 31 31 31 30 30 31

GEFSMA_500_meanwind_240.txt.gz
Wind_Speed
7 7 6 6 6 5 4 3 2 2 2 2 1 1 2 2 2 2 2 3 3 4 4 4 4 4 4 4 4 4 5 5 5 5 6 7 7 8 8 8 9 9 9
6 6 6 6 6 5 4 3 2 1 1 1 1 2 1 2 3 4 5 5 5 6 6 6 6 5 5 6 6 6 7 7 7 7 7 7 8 9 9 10 10 10 10
6 5 5 5 5 4 3 3 2 1 0 1 2 2 2 3 4 5 6 7 7 7 8 7 7 7 8 8 9 9 9 9 9 9 9 9 10 10 10 10 10 11 11
6 5 4 3 3 3 3 2 2 2 2 2 2 3 3 4 5 6 7 8 8 8 8 8 9 9 9 9 10 11 11 11 11 11 12 12 12 12 11 12 12 12 12
4 4 3 3 2 2 2 3 3 3 3 3 3 4 5 6 6 7 7 8 9 9 9 9 10 10 10 10 10 11 12 12 12 12 13 13 13 13 13 13 13 14 14
4 3 3 2 2 2 3 3 3 3 4 4 5 5 6 7 7 7 8 8 9 10 10 10 11 11 12 11 10 11 12 12 13 13 13 13 13 14 14 14 14 14 14
4 3 3 2 2 3 3 4 4 4 5 5 6 6 6 7 7 7 8 8 8 9 10 10 11 12 12 11 12 13 13 13 14 14 14 14 14 14 15 15 15 15 15
3 3 3 3 3 4 4 5 5 5 6 6 6 6 6 7 7 7 7 8 9 10 10 10 12 12 12 12 13 14 14 15 15 15 15 15 15 15 15 15 15 16 16
4 3 3 4 4 5 5 5 6 6 6 6 6 7 7 8 7 8 8 8 8 10 10 10 11 12 12 12 14 15 16 16 15 15 15 16 16 15 14 14 15 16 16
3 3 4 4 4 5 5 6 6 6 6 7 7 7 7 8 8 8 8 8 9 10 10 10 10 11 11 12 13 13 13 14 14 14 15 15 15 15 15 16 16 17 17
4 4 4 5 5 5 6 7 7 7 7 7 6 6 7 7 8 8 9 10 11 11 11 11 10 11 11 11 12 12 12 12 13 13 14 15 15 16 16 17 18 18 18
5 5 5 5 5 6 6 7 7 7 7 7 7 7 7 7 8 8 9 10 10 11 11 11 11 11 11 11 11 11 12 13 13 14 14 15 15 15 16 17 18 18 19
6 6 6 6 7 7 7 7 8 8 8 8 8 8 8 8 9 9 10 10 10 10 11 11 11 11 11 11 11 11 12 13 13 14 14 14 14 15 16 17 18 19 20
7 7 8 7 7 8 8 8 8 9 8 8 9 9 10 10 10 10 11 11 11 11 11 11 11 11 12 12 12 12 13 13 13 14 14 14 15 16 17 18 19 20 21
8 8 8 9 8 8 8 8 9 9 9 9 10 10 10 10 10 10 10 11 11 11 12 12 12 12 12 13 13 14 14 13 13 13 14 14 14 15 17 18 19 20 21
9 9 9 9 9 9 9 9 9 9 9 9 10 10 10 10 10 10 11 11 11 12 12 12 13 13 13 13 13 14 14 14 14 15 15 15 15 16 17 18 19 20 21
10 10 10 10 10 10 10 9 9 9 10 10 10 11 11 11 11 11 12 12 12 13 13 13 14 14 14 14 14 14 14 14 15 15 15 16 17 18 18 19 20 21 22
10 11 11 11 11 10 10 10 10 10 10 11 11 12 12 13 12 13 14 14 14 14 14 14 14 14 14 14 14 14 14 15 15 16 16 17 18 19 20 20 21 22 23
10 11 11 11 11 11 11 11 11 11 11 12 12 13 14 14 14 15 15 15 14 14 14 14 14 14 14 15 15 15 15 16 16 17 18 19 19 20 22 23 23 23 23
11 12 12 12 12 12 11 11 12 13 13 14 14 14 14 15 15 15 16 15 15 14 14 14 14 14 15 15 15 16 16 17 18 18 19 20 21 22 22 23 23 23 24
12 12 12 12 12 12 13 13 14 15 15 15 16 16 15 16 16 16 16 15 15 15 15 15 16 15 15 15 16 16 17 18 19 19 20 21 21 22 23 23 24 24 25
13 13 13 13 14 14 14 15 16 16 17 17 17 17 17 17 17 17 17 16 16 16 16 16 16 16 16 17 17 18 18 19 20 20 21 22 23 23 24 24 25 25 26
14 14 14 14 15 15 16 16 17 17 17 17 17 17 18 18 18 18 17 17 17 17 17 17 17 17 18 18 19 20 20 21 21 22 22 23 24 24 25 25 26 27 28
14 14 15 16 16 17 18 18 19 19 18 18 18 18 19 19 18 18 18 18 19 19 19 19 18 18 19 20 21 21 21 22 23 23 23 24 25 26 27 27 28 28 29
16 16 17 17 18 18 19 20 20 20 19 19 19 20 20 20 20 20 20 20 20 20 20 20 20 21 21 22 22 22 23 23 24 25 25 26 27 27 28 29 29 30 30
19 20 20 20 20 20 21 22 22 21 21 21 21 21 21 21 21 21 21 21 21 22 21 21 21 21 22 23 23 24 24 25 26 26 27 28 28 29 29 30 30 31 31

GEFSMA_500_meanwind_246.txt.gz
Wind_Speed
6 6 6 5 4 4 4 3 2 1 1 1 2 2 4 4 4 4 4 5 6 5 6 6 6 7 7 7 7 7 7 8 8 8 7 8 7 7 7 8 8 8 9
5 5 5 4 4 3 2 2 2 1 1 2 2 2 2 3 4 5 6 6 6 6 7 7 8 8 9 9 9 9 9 9 9 9 9 9 10 9 9 9 10 10 10
4 4 4 3 3 3 2 2 2 3 2 3 3 3 3 4 5 6 7 7 7 7 8 9 9 10 10 10 11 10 11 11 11 11 11 11 11 11 11 11 11 11 12
5 4 3 2 2 2 2 2 2 2 3 3 3 3 4 5 6 7 7 7 8 9 9 9 10 10 10 11 11 12 12 12 12 12 12 12 12 12 12 12 12 12 12
4 4 3 2 2 2 2 3 3 3 4 4 4 5 6 6 7 8 8 8 9 9 9 10 11 11 11 12 12 12 13 13 13 13 13 13 13 13 13 13 13 13 13
4 4 3 3 3 3 2 3 4 4 4 5 6 6 7 7 8 8 8 8 9 9 9 10 11 11 12 12 12 13 13 14 14 14 14 14 14 14 14 14 14 14 14
3 4 4 3 4 4 3 4 5 5 5 5 6 7 7 8 8 9 9 9 9 10 10 11 11 12 12 13 13 13 14 14 14 15 15 15 14 14 14 15 14 14 15
4 4 4 4 4 5 5 5 6 6 6 7 7 8 9 9 9 10 9 10 10 11 11 11 12 13 13 13 13 14 14 15 15 14 15 16 16 16 16 16 16 16 16
4 4 5 5 5 6 6 6 7 8 8 8 9 9 9 9 10 10 10 10 11 11 11 12 12 12 12 12 13 14 15 16 16 16 16 16 16 16 16 17 17 17 17
5 5 6 6 6 6 7 7 8 8 9 9 9 9 10 10 10 11 11 11 11 11 12 11 11 11 11 11 12 12 13 14 13 14 16 16 16 16 16 16 16 17 17
6 6 6 7 7 7 7 8 8 9 10 10 10 10 11 10 11 11 11 12 12 13 12 12 12 12 12 11 12 12 13 13 13 14 15 15 16 16 16 16 16 16 17
6 6 7 8 8 8 9 9 9 10 11 11 11 11 11 11 11 12 12 12 13 13 13 13 12 12 12 12 12 13 13 13 13 14 14 14 14 15 15 16 16 17 17
7 7 8 8 8 9 10 10 10 11 11 11 11 11 11 11 11 12 12 12 12 13 13 13 13 12 13 12 13 13 13 13 14 14 14 14 14 15 15 16 17 18 19
7 8 8 9 9 9 10 10 10 11 12 12 11 11 11 11 12 12 12 12 13 13 14 14 13 13 13 13 14 14 14 14 15 15 15 16 16 15 15 16 17 18 19
8 9 9 9 10 10 10 10 11 11 12 12 12 11 11 12 12 12 13 13 13 14 15 15 14 14 13 14 14 14 15 15 15 16 16 16 16 16 16 16 17 18 19
8 9 9 10 10 10 10 11 11 11 12 12 12 12 13 13 13 13 13 14 14 15 15 15 15 15 15 15 15 15 15 15 16 16 16 16 16 16 17 17 18 19 20
9 10 10 10 10 10 11 11 11 12 12 12 12 12 13 14 14 14 14 15 15 15 15 16 16 16 16 16 15 15 15 15 16 16 16 17 17 18 18 19 19 20 20
10 11 11 11 11 11 12 12 13 13 13 13 13 14 14 15 15 16 16 16 16 16 16 16 17 17 16 16 15 15 15 16 16 17 17 18 18 19 19 20 21 21 22
11 11 11 11 12 12 13 13 14 14 15 15 15 15 16 16 16 16 17 17 17 17 17 17 17 17 16 16 16 17 17 17 18 18 18 18 19 20 20 21 22 22 23
12 12 12 12 13 13 13 14 14 15 16 16 17 17 18 18 18 17 17 17 17 18 18 17 17 17 17 17 17 18 18 19 20 19 19 19 20 21 22 22 23 23 23
13 14 14 14 14 14 15 15 16 16 17 17 18 18 19 19 19 19 18 18 18 18 18 18 18 18 18 18 18 19 19 20 20 20 21 21 22 22 23 23 23 24 25
15 15 15 15 15 15 16 16 17 17 18 19 19 19 19 20 19 19 19 18 19 19 19 19 19 19 19 19 20 21 21 21 21 21 22 23 23 23 24 25 25 26 26
16 16 16 16 16 17 17 17 18 18 19 19 19 20 20 20 20 20 20 19 19 19 20 20 20 20 21 21 22 22 22 23 23 23 24 25 25 25 25 26 26 27 28
17 17 17 17 17 18 19 19 19 19 19 20 20 20 21 21 21 21 21 21 21 21 21 21 22 22 22 22 23 23 23 24 24 25 26 26 27 27 27 28 28 29 29
18 19 18 18 19 19 20 20 20 20 20 21 21 21 21 22 22 22 23 23 22 22 23 23 24 24 24 24 24 25 25 25 26 27 27 28 28 28 28 29 30 30 30
20 20 21 20 20 20 21 21 21 21 21 21 22 22 22 23 23 23 24 23 23 23 24 24 25 25 25 26 26 26 27 27 28 28 29 29 29 30 29 30 31 31 31

GEFSMA_500_meanwind_252.txt.gz
Wind_Speed
7 6 5 5 5 4 3 2 1 0 0 1 2 2 3 3 4 5 5 5 6 6 6 6 7 8 8 8 8 8 8 9 9 8 9 9 9 9 10 9 9 9 10
6 5 4 4 3 2 2 2 1 1 1 1 2 3 4 4 5 6 6 6 6 7 7 7 8 10 10 10 9 9 10 9 9 9 10 10 11 11 11 11 11 11 11
4 4 3 2 2 2 2 1 1 1 1 2 2 3 4 5 6 7 7 7 7 8 8 9 9 10 10 10 10 11 11 11 11 11 10 10 11 11 11 11 11 11 11
4 3 3 3 2 2 1 1 1 1 2 2 3 3 4 5 6 7 7 7 7 8 8 9 9 10 11 11 12 11 11 11 11 12 12 12 13 13 13 13 12 12 13
4 3 3 3 2 2 2 1 2 2 2 2 2 3 4 5 7 7 8 8 8 9 8 8 10 10 10 11 12 11 11 11 12 12 13 14 14 14 14 14 14 14 14
4 3 3 3 3 2 2 2 2 2 2 3 3 4 5 6 7 8 8 9 9 9 9 10 10 11 11 12 12 12 12 13 14 14 14 14 15 15 15 14 14 14 15
4 4 4 4 3 2 2 2 3 3 4 4 5 6 6 7 8 8 9 9 9 10 11 11 11 12 12 13 13 13 13 13 14 14 15 15 16 16 15 15 16 16 15
5 5 5 5 4 3 3 4 4 5 5 6 6 7 7 8 8 9 9 10 10 11 11 11 12 13 13 13 13 13 13 13 14 16 16 16 16 15 15 16 17 17 17
5 5 5 5 5 4 4 5 5 6 7 8 8 8 9 9 9 10 10 10 11 11 11 12 13 13 13 13 13 13 14 15 15 15 15 15 16 17 16 16 17 18 18
5 6 6 6 6 6 5 6 6 7 7 8 9 10 10 10 10 11 11 11 11 11 11 12 12 12 12 12 12 13 13 14 14 14 14 15 15 16 16 16 17 17 16
4 5 6 6 6 6 7 7 7 7 8 9 9 10 10 10 10 10 11 11 12 11 12 12 12 12 12 13 13 13 13 13 13 13 13 14 15 15 15 15 16 16 16
4 5 6 6 6 6 7 7 7 8 8 9 9 10 10 10 10 10 11 11 12 12 12 12 12 12 13 13 14 14 14 14 13 13 13 13 14 14 14 15 15 16 17
5 6 6 7 6 7 7 7 7 8 9 9 10 11 11 11 11 11 11 11 12 12 12 12 13 13 13 13 14 14 14 14 14 14 14 15 15 15 15 15 16 16 16
6 6 7 7 7 7 7 7 8 9 9 10 11 12 12 12 12 11 11 12 13 13 14 13 14 14 15 15 15 15 14 14 14 15 15 15 15 15 15 16 16 16 16
6 7 7 7 7 7 8 8 9 10 11 11 12 12 12 13 12 12 13 13 13 13 14 15 15 15 15 15 15 15 15 15 15 15 15 15 15 15 16 16 16 17 17
7 7 7 7 8 8 9 10 10 11 12 13 13 14 14 13 13 13 13 14 14 15 15 16 16 16 16 16 16 16 16 16 15 15 16 15 15 16 16 16 16 16 17
7 8 9 9 9 9 10 11 11 12 13 14 14 15 15 14 14 14 14 15 15 16 16 17 17 17 17 17 16 16 16 16 16 16 16 17 17 17 17 17 17 18 19
8 9 10 10 10 10 11 12 13 13 14 15 15 16 15 15 15 16 16 16 16 16 16 17 17 17 17 17 17 17 17 17 17 17 18 18 18 18 18 19 19 19 20
9 9 10 11 11 12 12 13 13 14 15 16 16 15 15 16 16 16 17 17 17 17 17 17 17 17 17 17 16 17 17 18 19 18 18 18 18 19 19 20 20 20 21
10 10 11 12 12 13 13 13 14 15 16 16 16 16 17 17 17 17 17 17 18 17 17 18 17 17 17 17 17 18 18 19 19 19 19 19 20 20 21 21 22 22 22
11 12 12 13 13 14 14 15 15 16 17 17 18 18 18 18 17 17 17 18 18 18 18 18 18 17 17 18 18 19 19 19 19 19 20 21 21 22 22 22 23 23 24
12 13 14 15 15 15 16 16 17 17 18 18 19 19 19 18 18 18 18 18 18 19 19 18 18 18 18 18 19 19 20 20 20 20 21 22 23 23 23 23 24 24 25
14 15 15 16 16 17 17 18 18 19 19 20 20 20 19 18 19 19 18 19 19 19 19 19 19 19 19 19 19 20 20 20 21 21 22 23 23 23 24 25 25 26 26
15 16 16 17 18 19 19 19 19 20 20 20 20 20 20 20 20 19 20 20 21 21 20 20 20 20 20 20 20 21 21 22 23 23 24 24 25 26 26 26 27 27 27
17 18 18 19 20 20 20 21 21 21 21 21 21 21 21 21 21 21 21 22 22 22 21 21 22 22 22 22 22 23 23 24 24 24 25 26 27 27 27 28 28 28 28
20 20 20 21 21 22 23 22 22 23 23 23 23 23 23 23 22 23 23 23 23 23 23 23 23 23 23 24 24 25 25 25 26 26 27 27 28 28 28 29 29 29 29

GEFSMA_500_meanwind_258.txt.gz
Wind_Speed
6 4 3 3 3 3 3 3 2 2 2 2 2 2 2 3 3 4 5 5 5 5 6 7 8 8 8 9 9 10 9 9 8 9 9 10 10 9 10 9 9 9 9
4 4 4 4 4 4 3 3 3 3 3 3 3 2 3 3 4 4 6 6 6 6 7 7 8 8 9 11 11 10 10 10 10 10 11 11 10 10 10 10 10 10 10
5 4 4 4 4 4 4 3 3 3 3 3 3 3 4 4 5 6 6 6 7 7 8 8 8 8 9 10 10 11 11 10 11 12 13 13 12 12 12 12 11 11 11
4 4 4 4 4 4 4 4 4 4 4 3 4 4 5 6 6 7 7 8 8 8 8 9 9 9 10 10 10 10 10 11 11 12 12 13 13 12 12 12 12 12 12
4 4 4 4 4 4 4 4 4 5 4 4 5 5 6 7 7 8 8 8 8 9 9 9 10 10 10 10 10 11 11 11 12 12 13 13 13 13 13 13 13 12 13
5 5 5 5 5 5 5 5 5 5 5 5 6 7 7 8 8 8 9 9 8 9 9 10 11 10 10 11 11 12 12 12 13 13 14 14 15 15 15 15 14 15 15
6 6 5 5 6 5 5 5 5 5 6 6 7 7 7 8 8 9 9 9 9 9 9 10 11 11 11 11 11 12 12 12 13 13 13 14 15 15 15 15 15 16 16
7 6 6 6 7 7 7 6 6 6 7 7 7 8 8 9 9 9 9 10 10 10 11 11 12 11 11 11 12 12 12 12 12 13 13 14 15 14 14 15 15 15 16
7 7 6 6 7 7 7 7 7 7 7 8 8 8 9 9 10 10 10 11 11 12 12 12 11 11 11 12 12 12 12 12 12 12 12 13 13 13 13 14 15 15 16
6 6 6 7 7 7 8 8 7 7 8 9 9 9 10 11 12 12 12 12 12 12 12 12 12 12 12 13 13 13 13 13 13 13 12 12 13 13 14 14 15 15 14
6 6 6 7 7 8 8 9 8 8 8 9 10 11 12 12 13 12 12 12 12 12 12 12 12 13 13 13 13 12 12 12 12 12 12 12 12 12 12 13 13 13 13
6 6 7 7 7 8 8 9 10 10 10 11 11 12 13 13 14 14 13 13 13 13 13 13 13 14 14 14 13 13 13 13 13 13 12 12 13 13 13 14 14 14 14
6 7 7 8 8 9 9 9 10 11 11 12 13 13 14 15 16 16 15 14 14 15 15 14 14 15 14 15 14 14 14 14 14 14 14 13 13 14 14 14 14 14 14
7 8 8 8 9 9 10 10 11 12 12 13 14 15 15 16 17 17 17 16 16 16 16 16 16 16 15 15 15 15 15 15 14 14 14 14 13 14 14 14 14 14 15
8 8 9 9 9 9 10 11 11 12 13 14 15 15 16 17 18 18 17 17 17 17 17 17 17 17 16 16 16 16 16 15 15 15 15 14 14 14 14 14 15 14 15
9 9 9 10 10 10 11 12 12 13 14 15 16 16 17 17 19 19 18 18 17 17 17 17 18 18 17 17 16 16 16 16 16 15 15 15 15 15 15 16 16 15 16
10 10 10 10 11 12 12 13 13 14 15 15 16 17 17 18 19 18 18 18 18 17 18 18 18 18 18 17 17 16 16 16 15 15 15 16 16 15 15 16 16 16 16
11 11 10 11 12 12 13 13 14 15 15 16 17 18 18 19 19 19 18 18 18 18 18 18 18 18 18 17 17 17 17 17 16 15 16 16 16 16 17 17 17 17 17
11 11 11 12 13 13 14 14 15 15 16 16 17 18 19 20 20 19 19 19 19 19 19 19 19 18 18 18 17 17 17 17 17 17 17 16 17 17 18 18 18 18 19
12 12 12 12 13 14 15 15 16 16 16 17 18 19 19 20 20 20 20 20 19 19 19 19 19 18 18 18 18 18 18 18 17 18 17 17 17 18 18 19 19 20 20
13 13 13 13 14 15 16 17 17 18 18 19 20 20 20 20 20 20 20 20 20 20 20 20 20 20 19 19 19 19 19 19 19 19 18 18 18 18 19 20 21 21 21
14 14 15 15 15 16 17 18 18 19 19 20 21 21 21 21 21 21 21 21 20 20 21 21 21 21 21 21 21 20 20 20 20 20 20 20 20 20 20 21 21 22 22
16 16 16 16 17 17 18 18 19 20 21 22 22 22 22 21 21 22 22 22 22 21 22 22 22 23 23 22 22 21 21 21 22 21 22 21 22 22 22 22 23 23 23
17 17 17 17 17 18 19 19 20 21 22 22 23 23 23 23 23 23 23 23 23 23 23 23 24 24 24 24 23 22 22 23 23 23 23 23 23 23 23 24 24 25 25
19 19 19 18 19 19 20 21 22 22 23 23 24 24 24 24 24 24 24 25 24 24 25 25 25 25 25 24 24 23 23 23 23 24 24 24 25 25 25 25 25 26 26
21 20 21 21 21 22 22 23 24 24 25 25 25 25 26 26 25 25 25 26 26 26 26 26 26 25 25 24 24 24 24 24 24 25 25 26 26 26 25 26 26 27 28

GEFSMA_500_meanwind_264.txt.gz
Wind_Speed
7 6 6 5 5 4 4 3 2 1 1 0 0 2 3 3 3 3 3 3 3 4 5 6 7 7 6 7 9 9 9 9 9 9 9 10 10 10 11 11 11 11 10
6 6 5 5 5 4 4 4 3 2 1 1 0 1 2 3 3 3 4 5 5 6 6 6 7 7 7 8 8 8 8 9 9 10 10 10 11 12 12 13 13 13 13
6 6 5 5 5 5 4 3 3 3 2 1 1 1 1 2 2 3 4 4 5 6 6 6 7 7 7 7 8 9 8 8 9 10 11 12 12 12 13 13 13 14 14
6 6 5 5 4 4 3 2 2 2 2 2 2 2 2 3 3 3 4 4 4 5 6 7 7 7 8 8 8 9 9 9 9 10 11 12 13 13 13 14 14 14 14
6 6 6 5 5 4 4 3 3 3 3 3 3 3 3 3 4 5 5 5 5 6 7 7 8 8 9 9 9 10 10 11 11 12 12 12 13 14 14 14 15 15 14
6 6 5 6 5 5 5 5 4 4 4 4 4 4 4 4 4 5 6 6 6 7 8 9 9 10 10 10 10 10 11 11 12 13 13 14 14 14 14 15 15 15 15
6 6 6 6 6 6 6 5 5 5 5 5 5 5 4 4 5 5 6 7 7 8 8 9 10 10 11 11 11 11 12 12 12 13 14 14 14 14 15 16 15 15 16
6 6 6 6 6 7 7 6 6 5 5 5 5 5 5 5 5 6 7 7 7 7 8 9 9 10 10 11 11 12 12 12 12 13 13 14 14 14 14 15 15 14 14
7 7 6 6 6 7 7 6 6 5 5 5 5 6 6 7 7 6 7 7 7 8 9 9 10 10 11 11 11 11 12 12 12 12 13 13 13 13 13 12 13 13 13
7 7 6 6 6 6 6 6 6 6 6 6 6 6 7 7 8 7 8 8 8 9 10 10 10 11 12 12 12 12 12 12 13 13 12 12 12 12 13 12 13 13 14
6 6 6 6 6 6 6 6 7 7 7 7 7 7 8 8 9 9 9 9 9 10 10 11 11 11 12 12 12 12 12 12 13 13 13 12 12 12 12 13 13 14 14
6 6 6 7 7 6 6 7 8 8 8 8 8 8 9 9 9 10 9 10 10 10 11 11 12 11 11 11 11 11 11 11 12 12 13 13 13 13 13 13 13 14 14
6 6 7 7 7 7 7 7 8 9 9 9 9 9 9 9 10 10 10 10 11 11 11 11 12 12 12 11 12 12 12 12 12 12 13 13 14 13 13 14 14 15 15
6 6 7 7 7 7 7 8 8 8 8 9 10 10 11 11 11 11 12 12 11 12 12 13 13 13 12 13 13 13 13 13 13 13 13 13 14 14 14 14 15 15 15
6 6 7 7 7 8 8 8 8 8 9 9 10 11 11 12 12 13 13 13 13 12 13 13 13 13 13 13 13 13 13 13 13 14 13 14 14 14 14 13 14 15 15
6 6 7 7 8 9 9 9 8 9 9 10 11 12 13 13 13 14 14 14 14 14 14 14 13 13 13 13 14 14 14 13 13 13 13 13 13 14 14 15 15 15 16
6 7 7 8 9 9 9 9 9 10 10 11 12 13 14 14 14 14 15 15 15 15 15 15 14 14 14 14 14 14 14 14 13 13 13 13 14 14 14 16 16 17 17
7 7 7 8 9 9 10 10 10 11 11 12 13 14 15 15 15 16 16 16 16 16 16 16 15 15 15 14 15 15 15 15 14 14 14 14 14 15 16 16 16 17 18
7 7 8 9 9 10 11 11 11 12 12 13 13 14 15 16 16 17 17 17 17 17 17 16 16 16 16 15 15 15 15 15 15 15 15 15 16 16 16 17 17 17 18
8 9 9 10 10 11 12 12 13 13 13 14 15 16 16 17 17 18 18 18 18 18 18 18 18 18 17 17 16 16 16 16 16 16 16 17 17 17 18 18 18 18 18
9 10 10 11 12 13 13 13 14 14 14 15 16 17 17 18 18 18 19 19 19 19 19 19 19 19 19 18 18 18 17 17 17 17 17 18 18 19 19 19 19 20 20
10 11 12 12 13 14 14 14 15 15 15 16 17 17 18 18 19 19 19 20 20 21 21 20 20 20 20 20 20 19 19 19 18 18 18 19 19 19 20 20 20 21 21
11 12 13 14 15 15 16 16 16 16 17 18 18 19 19 19 20 20 20 21 22 22 22 22 21 21 21 21 21 20 20 20 20 20 19 20 21 22 22 22 22 22 23
13 15 15 15 16 16 17 17 18 18 19 20 20 21 21 20 21 22 22 22 23 23 23 22 22 22 22 22 22 21 21 21 21 21 21 21 22 23 23 23 23 24 25
15 16 16 17 17 18 18 19 20 19 20 21 21 22 22 22 22 23 24 24 24 24 24 23 23 24 24 23 23 23 23 23 22 22 22 22 23 24 24 25 25 26 27
16 17 18 18 19 20 20 21 21 21 22 23 23 24 24 24 24 24 25 25 25 25 25 25 25 24 24 24 24 24 24 24 24 24 24 24 25 25 25 26 27 27 27

GEFSMA_500_meanwind_270.txt.gz
Wind_Speed
5 5 5 4 3 3 2 2 2 2 1 1 1 2 3 4 4 5 5 6 6 6 7 8 7 8 9 10 9 9 10 10 11 11 11 10 11 11 11 11 11 11 11
5 5 4 3 3 3 3 3 2 2 2 2 2 3 3 3 4 4 5 6 7 7 7 8 8 10 10 10 9 10 9 10 10 11 11 12 11 11 12 12 12 12 12
5 5 4 3 3 3 3 3 3 2 2 2 3 3 3 3 3 4 5 5 6 7 7 9 9 10 10 10 10 10 10 10 11 11 11 11 12 12 13 12 12 12 12
5 5 5 5 4 4 4 4 3 3 3 3 3 3 3 4 4 4 5 6 6 7 8 8 9 10 10 10 10 11 11 12 12 12 12 11 11 12 12 13 13 14 14
6 5 5 5 5 4 4 4 4 4 4 3 3 3 3 4 4 5 6 6 7 8 9 9 10 10 10 10 11 12 12 13 13 13 13 13 13 13 12 13 14 15 15
6 6 5 5 5 5 4 4 4 4 4 4 4 4 4 4 5 5 6 7 7 8 9 9 9 9 10 11 11 12 13 13 13 13 14 15 15 14 14 14 14 15 15
6 6 6 5 5 5 5 5 5 4 4 4 4 5 5 6 6 6 6 7 7 8 9 9 9 9 10 11 11 13 13 14 14 14 14 14 15 15 14 15 15 16 16
6 6 6 5 5 5 5 5 6 5 4 4 5 5 5 6 7 7 7 7 8 8 9 9 9 10 11 12 12 12 12 12 13 13 14 14 14 14 14 15 15 15 15
6 5 5 5 5 5 5 5 6 6 4 4 5 6 6 6 7 8 8 8 9 9 9 10 10 11 11 12 12 13 13 12 13 13 13 14 14 14 14 14 14 15 15
5 5 5 5 5 5 6 6 6 6 6 5 5 6 7 8 8 8 9 9 10 10 10 11 11 12 12 12 13 13 13 13 13 13 13 13 13 14 14 15 15 16 16
4 5 5 5 5 5 5 5 6 7 6 6 6 7 8 9 8 9 9 10 11 11 11 11 12 12 12 12 12 13 13 13 13 13 13 13 13 13 13 14 15 16 16
4 4 5 5 5 5 5 6 6 7 7 7 7 8 8 9 9 10 10 11 11 11 11 12 12 12 13 13 13 13 13 13 13 13 13 13 12 13 14 14 15 15 15
4 4 4 4 4 5 6 7 7 7 7 8 8 9 9 9 10 11 12 12 13 13 13 14 14 14 14 14 14 13 13 13 13 13 14 13 13 14 14 15 15 15 15
3 3 4 4 5 5 6 6 7 7 8 8 9 9 10 10 11 12 13 14 14 14 14 15 15 15 15 15 14 14 14 14 14 14 14 14 14 15 15 15 15 15 16
3 3 4 4 5 6 6 7 8 8 8 9 9 10 11 11 12 13 14 14 15 15 15 15 16 16 16 16 16 15 15 15 15 15 15 15 15 15 14 14 14 15 15
3 4 4 5 6 6 7 7 8 9 9 10 11 12 12 13 13 14 14 15 15 15 16 17 17 18 17 16 16 16 16 16 16 15 15 15 15 15 15 15 15 15 15
4 4 5 6 7 8 8 9 9 10 10 11 12 13 13 14 14 15 15 16 16 16 17 17 18 18 17 17 17 17 17 17 17 17 16 16 17 17 16 17 16 16 16
5 5 6 7 8 9 10 10 11 12 12 13 13 13 14 15 16 16 17 17 17 17 18 18 18 18 18 18 18 18 18 18 18 17 18 18 18 18 18 18 18 18 18
6 7 7 8 9 10 11 12 12 13 13 13 14 15 15 16 16 17 18 18 19 19 19 19 19 19 19 19 19 19 19 19 19 19 19 19 19 19 20 19 19 19 19
8 9 9 9 10 11 12 13 13 14 14 14 15 16 16 17 18 18 18 19 19 20 20 20 21 21 20 21 20 20 20 21 20 20 20 20 20 20 20 19 20 20 21
10 10 10 11 11 12 12 13 13 14 15 15 16 17 18 19 19 19 20 20 20 21 21 22 22 22 22 22 22 22 22 22 21 21 21 21 21 21 21 21 21 21 22
12 12 12 13 13 13 14 14 15 16 16 17 18 18 19 20 20 21 21 21 22 22 22 23 23 23 23 23 23 23 22 22 22 21 21 21 21 21 22 23 23 23 23
14 14 14 14 15 15 15 16 17 18 18 19 19 20 20 21 21 22 22 23 24 24 24 23 23 23 23 23 23 23 23 23 23 22 22 22 22 22 22 23 24 24 24
15 15 16 16 16 17 17 18 18 19 20 21 21 22 22 23 23 24 24 25 25 25 25 25 25 24 24 24 24 24 24 24 24 23 24 23 23 23 23 23 24 24 25
17 18 19 18 20 20 20 20 20 20 21 22 23 24 24 25 25 25 25 25 26 26 27 26 26 25 25 25 25 26 25 25 24 24 24 24 24 24 24 25 25 26 25
19 20 20 21 22 21 22 23 23 23 23 24 25 25 25 25 26 26 26 26 27 27 27 27 27 26 26 26 26 26 26 25 25 25 25 25 25 25 25 25 26 27 27